Simultaneous Nadir Overpasses (SNOs) Predictions

Prediction of SNOs between NOAA-19 and METOP-C Satellite Orbit:

Table of predicted SNOs for the next 14.0 days since TLE Epoch: 1/10/2025
Index Date (NOAA-19) Time (NOAA-19) Lat,Lon (NOAA-19) SZA (NOAA-19 ) Date (METOP-C) Time (METOP-C) Lat,Lon (METOP-C) SZA (METOP-C ) Distance(km) Time Diff (sec)
1 01/16/2025 01:06:25 -75.71, 89.17 66.46 01/16/2025 01:07:38 -75.70, 89.23 66.37 2.06 73
2 01/16/2025 01:57:09 75.12,-101.65 114.09 01/16/2025 01:58:08 75.13,-101.70 114.14 2.11 59
3 01/16/2025 02:47:54 -74.41, 67.63 65.29 01/16/2025 02:48:33 -74.43, 67.55 65.27 2.96 39
4 01/16/2025 03:38:46 74.17,-124.44 114.93 01/16/2025 03:39:10 74.18,-124.47 114.95 1.28 24
5 01/16/2025 04:29:30 -73.40, 44.72 64.42 01/16/2025 04:29:34 -73.41, 44.68 64.42 1.46 4
6 01/16/2025 05:20:19 72.99,-147.08 115.93 01/16/2025 05:20:08 73.00,-147.08 115.92 0.36 11
7 01/16/2025 06:11:03 -72.22, 21.83 63.43 01/16/2025 06:10:32 -72.22, 21.84 63.46 0.28 31
8 01/16/2025 07:01:47 71.53,-169.57 117.14 01/16/2025 07:01:01 71.53,-169.56 117.08 0.67 46



Historial Predications of SNOs between NOAA-19 and METOP-C
